Location: ??????????
(54.8537°N, 38.8755°E)
Time: 00:55:23
(UTC+00:00)

Transit 2A Rocket - Pass Details

Date: 20 September 2024
Orbit: 583 x 908 km, 66.7° (Epoch: 15 October)

Event Time Altitude Azimuth Distance (km) Brightness Sun altitude
Exits shadow 22:38:58 27° 308° (NW) 1,674 6.8 -32.1°
Maximum altitude 22:40:50 32° 340° (NNW) 1,501 6.8 -32.0°
Drops below altitude 10° 22:46:11 10° 43° (NE) 2,554 8.5 -31.6°
Sets 22:48:55 0° 53° (NE) 3,460 9.3 -31.5°
